Location: Sevilla
(37.3933°N, 5.9839°W)
Time: 04:25:03
(UTC+02:00)

Transit 2A - Pass Details

Date: 03 July 2024
Orbit: 591 x 960 km, 66.7° (Epoch: 15 July)

Event Time Altitude Azimuth Distance (km) Brightness Sun altitude
Rises 15:57:03 0° 251° (WSW) 3,089 9.5 66.1°
Reaches altitude 10° 15:59:58 10° 270° (W) 2,244 8.9 65.6°
Maximum altitude 16:03:34 19° 314° (NW) 1,796 8.3 64.9°
Drops below altitude 10° 16:07:26 10° 359° (N) 2,429 8.6 64.3°
Sets 16:10:47 0° 16° (NNE) 3,441 9.2 63.7°
